WESTFORD NEEDLES, 2359

Orbit data source: Space-Track

WESTFORD NEEDLES, 2359 is space debris in LEO originally from a launch on Thu, 09 May 1963 UTC launched from the Air Force Western Test Range (AFWTR). Debris objects in space refer to the collection of defunct objects orbiting the Earth. Examples of debris include non-operational satellites, rocket bodies, and fragments generated from explosions, collisions, or faulty payload assembly.

Loading next visibility...
Identifier
2359, 1963-014J
Orbit
LEO
Country
Flag of USUS
Related business
Manufacturer
Unknown
Mission
Spacecraft
Bus & Motor
Unknown
Mass
Unknown
Launch date (UTC)
1963-05-09 (62 years ago)
Launch vehicle
Unknown
Launch site
Air Force Western Test Range (AFWTR)
Object type
Payload
Rocket body
Debris
Shape & HBR
Unknown shape, 0.2 m
Radar Cross Section
Medium (>0.1 m² and <1 m²)

Expand to show TLE details & history
Last TLE update: 1 day ago

TLE from 1 day ago
0 WESTFORD NEEDLES
1 02359U 63014J   25298.53432272  .00002334  00000-0  49059+0 0  9995
2 02359  86.8961  33.8389 1213136 331.5463  22.4023  8.71356653894294
Epoch: 2025-10-25T12:49Z
TLE epoch observation values (Epoch: 2025-10-25T12:49:25.483Z)
Latitude
0.00004°
Longitude
167.31923°
Altitude
2,506.239 km
Speed
7.057 km/s
True Right ascension
02h 15m 21s
True Declination
0° 00' 00"
Sunlit
Object was in full shadow at epoch
Visualization orbit readout
Latitude
Unknown
Longitude
Unknown
Altitude
Unknown
Speed
Unknown
Apparent Right ascension
Unknown
Apparent Declination
Unknown
Sunlit
N/A
Visualization observer readout
Local Sidereal Time
09:37:57
Azimuth
Unknown
Elevation
Unknown
Doppler factor
Unknown
Orbital elements
Apogee altitude
4,805.108 km
Perigee altitude
2,385.304 km
Semi-major axis
9,973.343 km
Eccentricity
0.12131
Inclination
86.8961°
RAAN
33.8389°
Arg. of periapsis
331.5463°
True anomaly
28.54545°
Mean anomaly
22.4023°
Eccentric anomaly
25.38172°
Mean motion
2.17912 °/min
Orbital period
165.2 mins
BSTAR
0.49059
Loading maneuver chart data...
Computing Atmospheric mass density...

Documentation

Showing up to 5 results
|